Meadow Lake, CO

6:27 PM MDT on May 20, 2018 (GMT -0600)
Meadow Lake

Weather History for KFLY - December, 2013

Change the Weather History Date:

Monday, December 9, 2013

  Actual Average (WUND) Record (WUND)
Temperature  
Mean Temperature 8 °F -  
Max Temperature 18 °F - - (-1)
Min Temperature -2 °F - - (-1)
Degree Days  
Heating Degree Days 57    
Moisture  
Dew Point -1 °F    
Average Humidity 70    
Maximum Humidity 91    
Minimum Humidity 34    
Precipitation  
Precipitation 0.00 in - - ()
Sea Level Pressure  
Sea Level Pressure 29.96 in    
Wind  
Wind Speed 7 mph (West)    
Max Wind Speed 15 mph    
Max Gust Speed 16 mph    
Visibility 7 miles    
Events Snow    
Averages and records for this station are not official NWS values.
T = Trace of Precipitation, MM = Missing Value Source: NWS Daily Summary

Daily Weather History Graph

Daily Weather History Graph

Search for Another Location

Airport or City:

Astronomy

Dec. 09, 2013 Rise Set
Actual Time 7:05 AM MST 4:36 PM MST
Civil Twilight 6:35 AM MST 5:05 PM MST
Nautical Twilight 6:02 AM MST 5:39 PM MST
Astronomical Twilight 5:29 AM MST 6:11 PM MST
Moon 12:03 PM MST (12/9) No Moon Set
Length of Visible Light 10h 30m
Length of Day
9h 30m
First Quarter, 52% of the Moon is Illuminated
Dec 9
First Quarter
Dec 17
Full
Dec 25
Last Quarter
Jan 1
New
Jan 7
First Quarter

Hourly Weather History & Observations

Time (MST) Temp. Windchill Dew Point Humidity Pressure Visibility Wind Dir Wind Speed Gust Speed Precip Events Conditions
12:13 AM 3.7 °F - 1.0 °F 89% 29.90 in 1.5 mi North - - N/A Snow Light Snow
12:33 AM 3.4 °F - 0.5 °F 88% 29.90 in 1.5 mi North - - N/A Snow Light Snow
12:53 AM 2.5 °F -12.2 °F -0.6 °F 87% 29.90 in 2.5 mi SW 9.2 mph - N/A Snow Light Snow
1:13 AM 3.0 °F - 0.3 °F 88% 29.91 in 1.8 mi North - - N/A Snow Light Snow
1:33 AM 2.3 °F - -0.8 °F 87% 29.91 in 0.8 mi North - - N/A Snow Snow
1:53 AM 1.4 °F - -1.3 °F 88% 29.91 in 1.2 mi North - - N/A Snow Light Snow
2:13 AM -0.6 °F - -3.3 °F 88% 29.92 in 5.0 mi Calm Calm - N/A Snow Light Snow
2:33 AM 0.1 °F - -2.0 °F 91% 29.92 in 7.0 mi North - - N/A   Overcast
2:53 AM 1.2 °F -6.4 °F -1.3 °F 89% 29.92 in 4.0 mi SSW 3.5 mph - N/A Snow Light Snow
3:13 AM 2.5 °F - -0.4 °F 88% 29.92 in 7.0 mi North - - N/A   Overcast
3:33 AM 3.2 °F - -0.2 °F 86% 29.91 in 5.0 mi North - - N/A Snow Light Snow
3:53 AM 3.6 °F - -0.0 °F 85% 29.91 in 4.0 mi North - - N/A Snow Light Snow
4:13 AM 3.2 °F -9.1 °F 0.3 °F 88% 29.91 in 2.5 mi SW 6.9 mph - N/A Snow Light Snow
4:33 AM 3.2 °F - 0.3 °F 88% 29.90 in 3.0 mi North - - N/A Snow Light Snow
4:53 AM 3.0 °F -9.3 °F 0.1 °F 88% 29.91 in 2.0 mi SW 6.9 mph - N/A Snow Light Snow
5:13 AM 3.6 °F -7.3 °F 0.9 °F 89% 29.91 in 1.2 mi SSW 5.8 mph - N/A Snow Light Snow
5:33 AM 3.9 °F -5.3 °F 1.4 °F 89% 29.92 in 2.0 mi SW 4.6 mph - N/A Snow Light Snow
5:53 AM 3.9 °F -6.9 °F 1.2 °F 89% 29.92 in 1.5 mi SSW 5.8 mph - N/A Snow Light Snow
6:13 AM 3.2 °F - 0.5 °F 89% 29.92 in 7.0 mi North - - N/A Snow Light Snow
6:33 AM 1.6 °F - -1.8 °F 86% 29.92 in 10.0 mi North - - N/A   Mostly Cloudy
6:52 AM -0.4 °F -12.0 °F -3.3 °F 88% 29.93 in 5.0 mi SW 5.8 mph - N/A Snow Light Snow
7:12 AM -2.0 °F - -4.2 °F 91% 29.93 in 2.0 mi North - - N/A Snow Light Snow
7:32 AM -2.2 °F -10.4 °F -4.9 °F 88% 29.94 in 10.0 mi NNE 3.5 mph - N/A   Scattered Clouds
7:52 AM 0.3 °F -12.6 °F -2.2 °F 89% 29.93 in 2.5 mi SW 6.9 mph - N/A Snow Light Snow
8:12 AM 2.1 °F -10.4 °F -0.8 °F 88% 29.94 in 4.0 mi West 6.9 mph - N/A Snow Light Snow
8:32 AM 4.8 °F - 1.6 °F 86% 29.96 in 5.0 mi North - - N/A Snow Light Snow
8:52 AM 5.7 °F -12.0 °F 1.8 °F 84% 29.95 in 10.0 mi SW 15.0 mph - N/A   Clear
9:13 AM 6.8 °F -4.8 °F 3.2 °F 85% 29.96 in 7.0 mi WSW 6.9 mph - N/A Snow Light Snow
9:33 AM 7.9 °F -7.2 °F 3.6 °F 83% 29.96 in 7.0 mi West 11.5 mph - N/A Snow Light Snow
9:53 AM 8.2 °F -6.0 °F 3.7 °F 82% 29.95 in 10.0 mi West 10.4 mph - N/A Snow Light Snow
10:13 AM 9.1 °F -6.4 °F 5.0 °F 83% 29.94 in 10.0 mi WSW 12.7 mph 16.1 mph N/A Snow Light Snow
10:33 AM 10.2 °F - 4.3 °F 77% 29.95 in 10.0 mi North - - N/A Snow Light Snow
10:53 AM 9.7 °F -1.3 °F 4.8 °F 81% 29.95 in 3.0 mi South 6.9 mph - N/A Snow Light Snow
11:13 AM 10.8 °F - 5.4 °F 79% 29.94 in 1.8 mi North - - N/A Snow Light Snow
11:33 AM 12.0 °F - 4.3 °F 71% 29.93 in 7.0 mi North - - N/A Snow Light Snow
11:53 AM 13.6 °F - 3.6 °F 64% 29.92 in 10.0 mi North - - N/A   Clear
12:12 PM 14.5 °F - 4.1 °F 63% 29.92 in 10.0 mi North - - N/A   Clear
12:33 PM 15.6 °F - 4.3 °F 61% 29.92 in 10.0 mi North - - N/A   Clear
12:53 PM 14.9 °F - 5.7 °F 67% 29.91 in 10.0 mi North - - N/A   Clear
1:13 PM 14.9 °F - 5.0 °F 65% 29.90 in 10.0 mi North - - N/A   Clear
1:33 PM 16.2 °F - 4.5 °F 60% 29.92 in 10.0 mi North - - N/A   Clear
1:53 PM 16.9 °F - 4.6 °F 59% 29.92 in 10.0 mi North - - N/A   Clear
2:13 PM 18.0 °F - 3.9 °F 54% 29.92 in 10.0 mi North - - N/A   Clear
2:33 PM 17.2 °F - 0.3 °F 48% 29.92 in 10.0 mi North - - N/A   Clear
2:53 PM 17.6 °F - 0.5 °F 47% 29.93 in 10.0 mi North - - N/A   Clear
3:13 PM 16.9 °F - 4.5 °F 58% 29.94 in 10.0 mi North - - N/A   Clear
3:33 PM 16.7 °F - 3.7 °F 57% 29.95 in 10.0 mi North - - N/A   Clear
3:53 PM 14.5 °F - 3.7 °F 62% 29.96 in 10.0 mi North - - N/A   Clear
4:13 PM 12.9 °F - 4.1 °F 68% 29.96 in 10.0 mi North - - N/A   Clear
4:32 PM 10.9 °F - 3.4 °F 72% 29.97 in 10.0 mi North - - N/A   Clear
4:53 PM 6.8 °F - 0.9 °F 77% 29.97 in 10.0 mi Calm Calm - N/A   Clear
5:12 PM 7.2 °F - -0.8 °F 70% 29.98 in 10.0 mi North - - N/A   Clear
5:33 PM 5.7 °F - -2.4 °F 69% 29.99 in 10.0 mi North - - N/A   Clear
5:52 PM 4.8 °F -2.3 °F -1.3 °F 76% 29.99 in 10.0 mi West 3.5 mph - N/A   Clear
6:12 PM 5.5 °F -7.4 °F -0.4 °F 77% 30.00 in 10.0 mi West 8.1 mph - N/A   Clear
6:32 PM 4.5 °F - -1.5 °F 76% 30.00 in 10.0 mi North - - N/A   Clear
6:52 PM 5.2 °F - -2.2 °F 72% 30.01 in 10.0 mi North - - N/A   Clear
7:13 PM 8.1 °F - -2.0 °F 64% 30.02 in 10.0 mi North - - N/A   Clear
7:32 PM 11.1 °F - -7.1 °F 44% 30.03 in 10.0 mi North - - N/A   Clear
7:53 PM 11.5 °F - -7.8 °F 42% 30.04 in 10.0 mi North - - N/A   Clear
8:12 PM 14.5 °F - -9.0 °F 35% 30.06 in 10.0 mi North - - N/A   Clear
8:32 PM 9.3 °F - -10.7 °F 40% 30.06 in 10.0 mi North - - N/A   Clear
8:53 PM 13.3 °F 1.1 °F -7.4 °F 39% 30.05 in 10.0 mi NW 9.2 mph - N/A   Clear
9:13 PM 15.3 °F 4.4 °F -8.5 °F 34% 30.05 in 10.0 mi NNW 8.1 mph - N/A   Clear
9:32 PM 12.4 °F 2.0 °F -9.8 °F 37% 30.06 in 10.0 mi NNW 6.9 mph - N/A   Clear
9:53 PM 13.1 °F 2.8 °F -9.2 °F 36% 30.05 in 10.0 mi NNW 6.9 mph - N/A   Clear
10:13 PM 12.6 °F 3.4 °F -9.9 °F 36% 30.06 in 10.0 mi North 5.8 mph - N/A   Clear
10:33 PM 12.2 °F 0.7 °F -9.2 °F 38% 30.06 in 10.0 mi North 8.1 mph - N/A   Clear
10:53 PM 15.3 °F - -9.0 °F 34% 30.06 in 10.0 mi North - - N/A   Clear
11:13 PM 12.6 °F - -9.0 °F 38% 30.06 in 10.0 mi North - - N/A   Clear
11:33 PM 15.6 °F 7.0 °F -7.8 °F 35% 30.06 in 10.0 mi NNW 5.8 mph - N/A   Clear
11:53 PM 13.1 °F 2.8 °F -8.0 °F 39% 30.05 in 10.0 mi North 6.9 mph - N/A   Clear